CW8285 Weather Reports


time (UTC)temp
C
wind
direction
speed
KPH
gust
KPH
rain 1hr
cm
rain 24hr
cm
rain mn
cm
humidity
%
barometer
mb
20260505041324 8 293 0.0 0.0 0.00 0.00 0.00 80 1018.5
20260505040821 8 300 0.0 0.0 0.00 0.00 0.00 80 1018.5
20260505040319 8 293 0.0 1.6 0.00 0.00 0.00 80 1018.7
20260505035815 9 289 0.0 0.0 0.00 0.00 0.00 80 1018.6
20260505035311 9 300 0.0 0.0 0.00 0.00 0.00 78 1018.6
20260505034809 9 300 0.0 0.0 0.00 0.00 0.00 78 1018.7
20260505034305 9 304 1.6 3.2 0.00 0.00 0.00 77 1018.6
20260505033802 9 303 0.0 0.0 0.00 0.00 0.00 78 1018.7
20260505033259 10 297 0.0 0.0 0.00 0.00 0.00 78 1018.7
20260505032757 10 304 0.0 0.0 0.00 0.00 0.00 77 1018.9
20260505032253 10 304 0.0 0.0 0.00 0.00 0.00 76 1018.7
20260505031739 10 304 0.0 0.0 0.00 0.00 0.00 75 1019.1
20260505031235 10 304 0.0 0.0 0.00 0.00 0.00 75 1019.1
20260505030732 10 304 0.0 1.6 0.00 0.00 0.00 76 1019.0
20260505030228 10 304 0.0 0.0 0.00 0.00 0.00 75 1018.9
20260505025724 10 304 0.0 1.6 0.00 0.00 0.00 75 1019.1
20260505025222 10 283 1.6 1.6 0.00 0.00 0.00 74 1018.9
20260505024720 10 302 0.0 1.6 0.00 0.00 0.00 74 1018.9
20260505024217 10 300 0.0 1.6 0.00 0.00 0.00 75 1018.9
20260505023714 10 296 0.0 0.0 0.00 0.00 0.00 74 1018.7
20260505023211 10 294 0.0 0.0 0.00 0.00 0.00 73 1018.7
20260505022709 11 290 0.0 0.0 0.00 0.00 0.00 73 1019.0
20260505022205 11 308 0.0 1.6 0.00 0.00 0.00 74 1018.9
20260505021702 11 297 0.0 0.0 0.00 0.00 0.00 73 1018.6
20260505021159 11 290 0.0 0.0 0.00 0.00 0.00 74 1018.9
20260505020655 11 300 0.0 0.0 0.00 0.00 0.00 72 1018.6
20260505020151 11 298 0.0 0.0 0.00 0.00 0.00 73 1018.7
20260505015648 11 308 0.0 1.6 0.00 0.00 0.00 72 1018.5
20260505015144 11 297 0.0 1.6 0.00 0.00 0.00 72 1018.5
20260505014641 11 301 0.0 1.6 0.00 0.00 0.00 70 1018.5
20260505014139 12 300 0.0 0.0 0.00 0.00 0.00 69 1018.4
20260505013636 12 300 0.0 1.6 0.00 0.00 0.00 71 1018.5
20260505013133 12 282 0.0 1.6 0.00 0.00 0.00 68 1018.3
20260505012631 12 300 0.0 0.0 0.00 0.00 0.00 67 1018.4
20260505012128 12 308 0.0 1.6 0.00 0.00 0.00 67 1018.0
20260505011623 12 286 0.0 3.2 0.00 0.00 0.00 67 1018.3
20260505011121 13 300 0.0 0.0 0.00 0.00 0.00 65 1018.3
20260505010616 13 301 0.0 0.0 0.00 0.00 0.00 64 1018.2
20260505010113 13 302 1.6 1.6 0.00 0.00 0.00 63 1018.2
20260505005609 13 300 0.0 0.0 0.00 0.00 0.00 62 1018.2
20260505005107 14 324 1.6 3.2 0.00 0.00 0.00 62 1018.3
20260505004604 14 302 1.6 1.6 0.00 0.00 0.00 59 1018.2
20260505004100 15 301 0.0 0.0 0.00 0.00 0.00 59 1018.2
20260505003558 15 300 0.0 0.0 0.00 0.00 0.00 58 1017.8
20260505003055 15 328 3.2 3.2 0.00 0.00 0.00 55 1017.8
20260505002555 15 297 0.0 1.6 0.00 0.00 0.00 53 1017.8
20260505002055 16 296 0.0 1.6 0.00 0.00 0.00 53 1017.8
20260505001551 16 319 1.6 1.6 0.00 0.00 0.00 52 1017.8
20260505001048 16 285 1.6 4.8 0.00 0.00 0.00 51 1017.8
20260505000546 16 304 0.0 0.0 0.00 0.00 0.00 50 1017.7
20260505000043 16 304 0.0 1.6 0.00 0.00 0.00 49 1017.7
20260504235540 17 304 0.0 0.0 0.00 0.00 0.00 47 1017.7
20260504235037 17 302 0.0 0.0 0.00 0.00 0.00 46 1017.6
20260504234534 17 286 0.0 0.0 0.00 0.00 0.00 45 1017.3
20260504234031 17 266 1.6 3.2 0.00 0.00 0.00 44 1017.4
20260504233526 18 307 0.0 1.6 0.00 0.00 0.00 44 1017.3
20260504233023 18 302 0.0 1.6 0.00 0.00 0.00 42 1017.3
20260504232520 18 296 0.0 1.6 0.00 0.00 0.00 43 1017.4
20260504232018 18 315 1.6 3.2 0.00 0.00 0.00 41 1017.2
20260504231514 18 319 4.8 4.8 0.00 0.00 0.00 41 1017.3
20260504231010 18 317 1.6 1.6 0.00 0.00 0.00 41 1017.2
20260504230507 18 307 0.0 3.2 0.00 0.00 0.00 41 1017.3
20260504230006 17 306 0.0 3.2 0.00 0.00 0.00 40 1017.2
20260504225502 17 307 1.6 3.2 0.00 0.00 0.00 41 1017.0
20260504224959 18 319 1.6 3.2 0.00 0.00 0.00 40 1017.1
20260504224456 17 307 1.6 1.6 0.00 0.00 0.00 39 1017.3
20260504223953 17 307 0.0 1.6 0.00 0.00 0.00 39 1017.3
20260504223449 18 307 0.0 1.6 0.00 0.00 0.00 39 1017.3
20260504222945 18 317 0.0 1.6 0.00 0.00 0.00 39 1017.3
20260504222443 18 296 0.0 0.0 0.00 0.00 0.00 39 1017.4
20260504221940 18 306 0.0 1.6 0.00 0.00 0.00 38 1017.4
20260504221437 18 301 0.0 3.2 0.00 0.00 0.00 38 1017.4
20260504220934 18 312 0.0 1.6 0.00 0.00 0.00 40 1017.4
20260504220430 18 303 0.0 0.0 0.00 0.00 0.00 39 1017.7
20260504215928 18 304 0.0 3.2 0.00 0.00 0.00 34 1017.3
20260504215424 18 307 1.6 1.6 0.00 0.00 0.00 36 1017.6
20260504214921 18 296 0.0 0.0 0.00 0.00 0.00 36 1017.4
20260504214417 19 319 0.0 3.2 0.00 0.00 0.00 34 1017.6
20260504213914 18 289 1.6 1.6 0.00 0.00 0.00 34 1017.4
20260504213410 18 296 0.0 1.6 0.00 0.00 0.00 36 1017.3
20260504212908 18 289 0.0 8.0 0.00 0.00 0.00 34 1017.3
20260504212403 19 285 1.6 3.2 0.00 0.00 0.00 37 1017.6
20260504211901 19 288 0.0 1.6 0.00 0.00 0.00 37 1017.4
20260504211357 19 327 3.2 4.8 0.00 0.00 0.00 35 1017.4
20260504210855 20 299 0.0 3.2 0.00 0.00 0.00 35 1017.6
20260504210351 20 312 1.6 3.2 0.00 0.00 0.00 34 1017.2
20260504205848 20 310 3.2 3.2 0.00 0.00 0.00 35 1017.3
20260504205346 20 298 0.0 3.2 0.00 0.00 0.00 34 1017.4
20260504204844 21 299 1.6 3.2 0.00 0.00 0.00 32 1017.6
20260504204342 21 289 1.6 3.2 0.00 0.00 0.00 31 1017.7
20260504203842 22 310 1.6 1.6 0.00 0.00 0.00 33 1017.3
20260504203338 22 306 1.6 3.2 0.00 0.00 0.00 31 1017.6
20260504202833 23 279 1.6 1.6 0.00 0.00 0.00 30 1017.3
20260504202331 23 279 1.6 1.6 0.00 0.00 0.00 28 1017.7
20260504201828 23 289 0.0 3.2 0.00 0.00 0.00 29 1017.4
20260504201325 23 285 1.6 1.6 0.00 0.00 0.00 26 1017.4
20260504200822 23 300 3.2 3.2 0.00 0.00 0.00 27 1017.6
20260504200319 23 288 1.6 1.6 0.00 0.00 0.00 28 1017.6
20260504195815 23 296 1.6 3.2 0.00 0.00 0.00 26 1017.6
20260504195311 23 292 1.6 3.2 0.00 0.00 0.00 27 1017.7
20260504194808 23 279 1.6 3.2 0.00 0.00 0.00 26 1017.8
20260504194304 23 277 3.2 3.2 0.00 0.00 0.00 27 1017.9
20260504193800 22 315 1.6 4.8 0.00 0.00 0.00 32 1018.0
20260504193258 23 289 3.2 3.2 0.00 0.00 0.00 31 1017.9
20260504192756 23 303 3.2 4.8 0.00 0.00 0.00 30 1018.2
20260504192254 22 293 0.0 3.2 0.00 0.00 0.00 30 1018.1
20260504191752 22 296 3.2 8.0 0.00 0.00 0.00 30 1018.1
20260504191249 23 303 3.2 3.2 0.00 0.00 0.00 28 1018.1
20260504190744 23 298 3.2 3.2 0.00 0.00 0.00 32 1018.0
20260504190241 23 283 4.8 4.8 0.00 0.00 0.00 27 1018.2
20260504185737 23 285 1.6 3.2 0.00 0.00 0.00 29 1018.2
20260504185235 22 279 3.2 3.2 0.00 0.00 0.00 30 1018.4
20260504184731 22 296 0.0 8.0 0.00 0.00 0.00 30 1018.4
20260504184227 22 286 3.2 4.8 0.00 0.00 0.00 32 1018.4
20260504183723 22 291 1.6 4.8 0.00 0.00 0.00 33 1018.4
20260504183220 22 267 1.6 3.2 0.00 0.00 0.00 33 1018.5
20260504182718 22 283 1.6 3.2 0.00 0.00 0.00 31 1018.6
20260504182215 22 281 3.2 3.2 0.00 0.00 0.00 32 1018.6
20260504181712 22 283 0.0 3.2 0.00 0.00 0.00 35 1018.7
20260504181210 22 286 1.6 1.6 0.00 0.00 0.00 34 1018.7
20260504180709 22 273 1.6 3.2 0.00 0.00 0.00 32 1018.9
20260504180207 21 294 1.6 4.8 0.00 0.00 0.00 36 1018.6
20260504175704 21 300 1.6 3.2 0.00 0.00 0.00 37 1018.9
20260504175200 21 288 4.8 4.8 0.00 0.00 0.00 36 1019.0
20260504174658 21 282 4.8 4.8 0.00 0.00 0.00 34 1018.9
20260504174155 21 297 0.0 3.2 0.00 0.00 0.00 38 1018.9
20260504173652 21 290 0.0 1.6 0.00 0.00 0.00 39 1019.2
20260504173149 20 292 1.6 3.2 0.00 0.00 0.00 34 1019.0
20260504172646 20 292 3.2 4.8 0.00 0.00 0.00 37 1019.1
20260504172142 21 283 3.2 4.8 0.00 0.00 0.00 35 1019.0
20260504171639 21 291 3.2 3.2 0.00 0.00 0.00 38 1019.1
20260504171136 20 291 4.8 4.8 0.00 0.00 0.00 33 1019.2
20260504170632 20 264 3.2 4.8 0.00 0.00 0.00 34 1019.2
20260504170130 20 298 1.6 4.8 0.00 0.00 0.00 35 1019.3
20260504151021 16 310 1.6 3.2 0.00 0.00 0.00 35 1020.7
20260504150519 16 284 4.8 4.8 0.00 0.00 0.00 39 1020.8
20260504140945 13 293 1.6 3.2 0.00 0.00 0.00 58 1020.8
20260504140441 12 289 1.6 1.6 0.00 0.00 0.00 59 1020.8
20260504130406 8 289 1.6 1.6 0.00 0.00 0.00 72 1020.5
20260504110253 1 292 0.0 0.0 0.00 0.00 0.00 96 1019.8
20260504100217 2 292 0.0 0.0 0.00 0.00 0.00 94 1019.6
20260504090139 2 312 0.0 1.6 0.00 0.00 0.00 93 1020.0
20260504081609 2 288 0.0 0.0 0.00 0.00 0.00 92 1019.6
20260504081105 2 292 0.0 0.0 0.00 0.00 0.00 92 1019.6
20260504080602 2 291 0.0 0.0 0.00 0.00 0.00 91 1019.5
20260504050415 4 292 0.0 0.0 0.00 0.00 0.00 85 1019.9
20260504045912 4 292 0.0 0.0 0.00 0.00 0.00 84 1020.0
20260504045408 4 292 0.0 0.0 0.00 0.00 0.00 84 1019.9
20260504044904 4 292 0.0 1.6 0.00 0.00 0.00 84 1019.9
20260504044402 4 292 0.0 0.0 0.00 0.00 0.00 84 1020.0
20260504043859 5 292 0.0 0.0 0.00 0.00 0.00 83 1019.7
20260504043356 5 292 0.0 0.0 0.00 0.00 0.00 83 1019.6
20260504042853 5 292 0.0 0.0 0.00 0.00 0.00 83 1019.6
20260504042349 5 292 0.0 0.0 0.00 0.00 0.00 82 1019.9
20260504041846 5 292 0.0 0.0 0.00 0.00 0.00 82 1019.8